Location: Godiavel Galaoual
(15.2485°N, 12.6604°W)
Time: 10:15:32
(UTC+00:00)

Hubble Space Telescope - Pass Details

Date: 27 February 2020
Orbit: 536 x 540 km, 28.5° (Epoch: 28 March)

Event Time Altitude Azimuth Distance (km) Brightness Sun altitude
Rises 19:17:25 0° 308° (NW) 2,670 5.1 -5.5°
Reaches altitude 10° 19:20:38 10° 335° (NNW) 1,781 3.7 -6.3°
Maximum altitude 19:22:50 14° 7° (N) 1,544 3.0 -6.8°
Drops below altitude 10° 19:25:02 10° 40° (NE) 1,782 3.0 -7.4°
Enters shadow 19:26:21 - 53° (NE) 2,098 3.3 -7.7°
